Вернуться в каталог

STARLINK-4406

АктивенСвязьPO
NORAD 53667·PAYLOAD·🇺🇸 United States

Запущен Aug 31, 2022 с Vandenberg Space Force Base

Loading…

Ближайшие Пролёты (ближайшие 24 часа)

TLE

СвежийSource: CelesTrak SupGP

Эпоха: Sep 15, 2026, 02:44 UTC

1 53667C 22105V   26258.11437500  .00242340  00000+0  25167-2 0  2586
2 53667  97.5976 145.9671 0001690  98.0470 324.7503 15.64515510    17

Отслеживайте STARLINK-4406 в реальном времени с AllMySat

Download on the App Store